Bluefield, WV

6:13 PM EST on December 14, 2019 (GMT -0500)
Mercer County

Weather History for KBLF - May, 2019

Change the Weather History Date:

Wednesday, May 22, 2019

  Actual Average Record
Temperature  
Mean Temperature 66 °F 64 °F  
Max Temperature 75 °F 73 °F 92 °F (1941)
Min Temperature 57 °F 55 °F 30 °F (2002)
Degree Days  
Heating Degree Days 0 4  
Month to date heating degree days 81 112  
Since 1 July heating degree days 4854 4542  
Cooling Degree Days 1 2  
Month to date cooling degree days 29 35  
Year to date cooling degree days 34 63  
Growing Degree Days 16 (Base 50)    
Moisture  
Dew Point 55 °F    
Average Humidity 72    
Maximum Humidity 86    
Minimum Humidity 57    
Precipitation  
Precipitation 0.00 in 0.14 in 1.15 in (1949)
Month to date precipitation 4.31 2.96  
Year to date precipitation 18.01 15.47  
Snow  
Snow 0.00 in - - ()
Month to date snowfall 0.0  
Since 1 July snowfall 30.8  
Snow Depth 0.00 in    
Sea Level Pressure  
Sea Level Pressure 30.16 in    
Wind  
Wind Speed 7 mph (SSE)    
Max Wind Speed 14 mph    
Max Gust Speed 23 mph    
Visibility 10 miles    
Events      
T = Trace of Precipitation, MM = Missing Value Source: NWS Daily Summary

Daily Weather History Graph

Daily Weather History Graph

Search for Another Location

Airport or City:

Astronomy

May. 22, 2019 Rise Set
Actual Time 6:11 AM EDT 8:32 PM EDT
Civil Twilight 5:41 AM EDT 9:02 PM EDT
Nautical Twilight 5:04 AM EDT 9:38 PM EDT
Astronomical Twilight 4:24 AM EDT 10:19 PM EDT
Moon No Moon Rise 9:18 AM EDT (5/22)
Length of Visible Light 15h 20m
Length of Day
14h 21m
Waning Gibbous, 85% of the Moon is Illuminated
May 22
Waning Gibbous
May 26
Last Quarter
Jun 3
New
Jun 10
First Quarter
Jun 17
Full

Hourly Weather History & Observations

Time (EDT) Temp. Dew Point Humidity Pressure Visibility Wind Dir Wind Speed Gust Speed Precip Events Conditions
12:52 AM 62.1 °F 50.0 °F 65% 30.07 in 10.0 mi ENE 8.1 mph - N/A   Clear
1:52 AM 61.0 °F 51.1 °F 70% 30.08 in 10.0 mi Calm Calm - N/A   Clear
2:52 AM 59.0 °F 53.1 °F 81% 30.09 in 10.0 mi SE 13.8 mph 20.7 mph N/A   Clear
3:52 AM 57.9 °F 53.1 °F 84% 30.09 in 10.0 mi SSE 9.2 mph 17.3 mph N/A   Partly Cloudy
4:52 AM 57.0 °F 53.1 °F 87% 30.10 in 10.0 mi SE 10.4 mph 18.4 mph N/A   Partly Cloudy
5:17 AM 57.0 °F 53.1 °F 87% 30.18 in 10.0 mi Variable 6.9 mph - N/A   Mostly Cloudy
5:52 AM 57.0 °F 53.1 °F 87% 30.12 in 10.0 mi Variable 6.9 mph - N/A   Mostly Cloudy
6:52 AM 57.0 °F 52.0 °F 83% 30.13 in 10.0 mi Variable 5.8 mph 21.9 mph N/A   Mostly Cloudy
7:21 AM 57.9 °F 52.0 °F 81% 30.22 in 10.0 mi North - - N/A   Scattered Clouds
7:52 AM 57.9 °F 52.0 °F 81% 30.14 in 10.0 mi SSE 9.2 mph - N/A   Clear
8:52 AM 59.0 °F 52.0 °F 78% 30.16 in 10.0 mi SE 9.2 mph 20.7 mph N/A   Clear
9:26 AM 60.1 °F 52.0 °F 75% 30.24 in 10.0 mi Variable 5.8 mph - N/A   Mostly Cloudy
9:52 AM 59.0 °F 52.0 °F 78% 30.18 in 10.0 mi Variable 5.8 mph - N/A   Mostly Cloudy
10:32 AM 61.0 °F 53.1 °F 75% 30.25 in 10.0 mi SSE 9.2 mph - N/A   Scattered Clouds
10:52 AM 62.1 °F 54.0 °F 75% 30.19 in 10.0 mi SSE 9.2 mph - N/A   Clear
11:52 AM 64.9 °F 55.9 °F 73% 30.19 in 10.0 mi Variable 5.8 mph - N/A   Clear
12:52 PM 68.0 °F 57.0 °F 68% 30.19 in 10.0 mi SSE 6.9 mph - N/A   Mostly Cloudy
1:52 PM 70.0 °F 57.9 °F 65% 30.18 in 10.0 mi Variable 6.9 mph - N/A   Clear
2:52 PM 73.0 °F 57.9 °F 59% 30.16 in 10.0 mi SSE 5.8 mph - N/A   Clear
3:52 PM 75.0 °F 61.0 °F 62% 30.14 in 10.0 mi SSE 8.1 mph - N/A   Clear
4:52 PM 75.0 °F 60.1 °F 60% 30.13 in 10.0 mi SSE 9.2 mph - N/A   Clear
5:52 PM 73.9 °F 60.1 °F 62% 30.14 in 10.0 mi South 10.4 mph - N/A   Clear
6:52 PM 72.0 °F 61.0 °F 68% 30.14 in 10.0 mi South 9.2 mph 19.6 mph N/A   Clear
7:52 PM 69.1 °F 60.1 °F 73% 30.16 in 10.0 mi South 8.1 mph - N/A   Clear
8:52 PM 66.9 °F 60.1 °F 79% 30.17 in 10.0 mi Variable 4.6 mph - N/A   Clear
9:52 PM 64.9 °F 59.0 °F 81% 30.19 in 10.0 mi Variable 5.8 mph - N/A   Clear
10:52 PM 64.0 °F 57.9 °F 80% 30.21 in 10.0 mi Variable 4.6 mph - N/A   Clear
11:52 PM 64.0 °F 57.9 °F 80% 30.20 in 10.0 mi Variable 4.6 mph - N/A   Mostly Cloudy